CSC124 ZJHK-WSSS

Flight info

Callsign CSC124
Flight time 2h 53m
Altitude 34100
Route UPRIS9XD UPRIS G221 SAGSU/K0848S1010 G221 BUNTA/K0852F340 G221 PCA W12 BMT Q1 AC L644 CN/K0850F350 L642 ESPOB/N0458F340 Q801 ESBUM/N0458F350 Q802 ELALO ELALO1B
Aircraft A321/M-SDE3FGHIRWY/LB1

Departure

Time 2026-05-05 08:19
Airport Haikou Meilan International Airport (ZJHK)

Arrival

Time 2026-05-05 11:13
Airport Singapore Changi Airport (WSSS)
Time Latitude Longitude Altitude Speed Heading
2026-05-05 08:01 19.94827 110.45383 58 ft 0 kts 50°
2026-05-05 08:09 19.94815 110.45369 58 ft 4 kts 50°
2026-05-05 08:09 19.94802 110.45351 54 ft 4 kts 76°
2026-05-05 08:09 19.94801 110.45347 54 ft 0 kts 85°
2026-05-05 08:12 19.94801 110.45350 54 ft 2 kts 86°
2026-05-05 08:12 19.94795 110.45360 65 ft 1 kts 130°
2026-05-05 08:12 19.94785 110.45363 74 ft 2 kts 165°
2026-05-05 08:13 19.94776 110.45361 44 ft 0 kts 195°
2026-05-05 08:13 19.94770 110.45356 48 ft 4 kts 217°
2026-05-05 08:13 19.94760 110.45339 57 ft 2 kts 255°
2026-05-05 08:13 19.94766 110.45315 48 ft 4 kts 290°
2026-05-05 08:14 19.94782 110.45293 47 ft 4 kts 312°
2026-05-05 08:14 19.94798 110.45276 58 ft 3 kts 313°
2026-05-05 08:14 19.94811 110.45261 52 ft 3 kts 315°
2026-05-05 08:14 19.94843 110.45228 55 ft 10 kts 315°
2026-05-05 08:15 19.94878 110.45190 53 ft 7 kts 315°
2026-05-05 08:15 19.94900 110.45152 52 ft 6 kts 287°
2026-05-05 08:15 19.94903 110.45116 54 ft 4 kts 271°
2026-05-05 08:15 19.94926 110.45085 52 ft 8 kts 330°
2026-05-05 08:16 19.94997 110.45077 52 ft 12 kts
2026-05-05 08:16 19.95080 110.45078 54 ft 12 kts 360°
2026-05-05 08:16 19.95155 110.45077 53 ft 6 kts 359°
2026-05-05 08:16 19.95193 110.45057 52 ft 9 kts 299°
2026-05-05 08:17 19.95217 110.44995 51 ft 9 kts 320°
2026-05-05 08:17 19.95264 110.44984 51 ft 4 kts 359°
2026-05-05 08:17 19.95288 110.44984 51 ft 3 kts 359°
2026-05-05 08:17 19.95313 110.44986 51 ft 6 kts
2026-05-05 08:18 19.95353 110.45008 51 ft 6 kts 42°
2026-05-05 08:18 19.95369 110.45039 50 ft 5 kts 69°
2026-05-05 08:18 19.95372 110.45062 52 ft 0 kts 88°
2026-05-05 08:18 19.95372 110.45087 52 ft 22 kts 90°
2026-05-05 08:19 19.95374 110.45509 57 ft 89 kts 89°
2026-05-05 08:19 19.95380 110.46363 56 ft 140 kts 90°
2026-05-05 08:19 19.95389 110.47521 148 ft 171 kts 88°
2026-05-05 08:19 19.95414 110.48768 774 ft 170 kts 85°
2026-05-05 08:20 19.95747 110.49963 1320 ft 175 kts 53°
2026-05-05 08:20 19.96884 110.50688 1237 ft 228 kts
2026-05-05 08:20 19.98529 110.50419 1794 ft 250 kts 336°
2026-05-05 08:20 19.99519 110.49745 2326 ft 261 kts 321°
2026-05-05 08:21 20.00794 110.48322 2932 ft 270 kts 309°
2026-05-05 08:21 20.02014 110.46894 3917 ft 256 kts 327°
2026-05-05 08:21 20.04193 110.45991 4920 ft 252 kts 346°
2026-05-05 08:21 20.05889 110.45591 5543 ft 254 kts 346°
2026-05-05 08:22 20.07060 110.45316 5964 ft 255 kts 345°
2026-05-05 08:22 20.09366 110.44775 6778 ft 258 kts 345°
2026-05-05 08:22 20.10526 110.44492 7157 ft 259 kts 342°
2026-05-05 08:22 20.12802 110.43631 7924 ft 261 kts 335°
2026-05-05 08:23 20.13908 110.43123 8326 ft 262 kts 334°
2026-05-05 08:23 20.15578 110.42324 8915 ft 264 kts 333°
2026-05-05 08:23 20.17260 110.41519 9485 ft 266 kts 333°
2026-05-05 08:23 20.18960 110.40719 10020 ft 268 kts 333°
2026-05-05 08:24 20.20535 110.39684 10494 ft 266 kts 312°
2026-05-05 08:24 20.21761 110.37476 11107 ft 265 kts 282°
2026-05-05 08:24 20.21854 110.35498 11351 ft 277 kts 258°
2026-05-05 08:24 20.21440 110.34191 11444 ft 289 kts 242°
2026-05-05 08:25 20.20140 110.32486 11553 ft 307 kts 226°
2026-05-05 08:25 20.18552 110.30869 11688 ft 324 kts 225°
2026-05-05 08:25 20.16308 110.28617 11849 ft 345 kts 225°
2026-05-05 08:25 20.15110 110.27415 11931 ft 355 kts 225°
2026-05-05 08:26 20.12691 110.24984 12390 ft 365 kts 225°
2026-05-05 08:26 20.11466 110.23753 12704 ft 367 kts 225°
2026-05-05 08:26 20.08978 110.21247 13351 ft 370 kts 225°
2026-05-05 08:26 20.07740 110.19995 13679 ft 372 kts 225°
2026-05-05 08:27 20.05861 110.18094 14118 ft 374 kts 225°
2026-05-05 08:27 20.03972 110.16180 14544 ft 376 kts 225°
2026-05-05 08:27 20.02016 110.14317 14955 ft 379 kts 219°
2026-05-05 08:27 19.99766 110.12823 15357 ft 385 kts 208°
2026-05-05 08:28 19.97321 110.11631 15759 ft 388 kts 207°
2026-05-05 08:28 19.94891 110.10463 16136 ft 390 kts 206°
2026-05-05 08:28 19.92411 110.09272 16514 ft 392 kts 207°
2026-05-05 08:28 19.89912 110.08072 16884 ft 395 kts 207°
2026-05-05 08:29 19.87405 110.06867 17258 ft 397 kts 207°
2026-05-05 08:29 19.84884 110.05653 17611 ft 399 kts 207°
2026-05-05 08:29 19.82348 110.04431 17980 ft 402 kts 207°
2026-05-05 08:30 19.77220 110.01964 18803 ft 407 kts 207°
2026-05-05 08:30 19.74634 110.00720 19200 ft 409 kts 207°
2026-05-05 08:30 19.72027 109.99466 19609 ft 411 kts 207°
2026-05-05 08:30 19.69417 109.98208 19916 ft 413 kts 207°
2026-05-05 08:31 19.66792 109.96942 20208 ft 415 kts 207°
2026-05-05 08:31 19.64159 109.95678 20487 ft 417 kts 206°
2026-05-05 08:31 19.61505 109.94405 20758 ft 419 kts 207°
2026-05-05 08:31 19.58842 109.93127 21035 ft 421 kts 207°
2026-05-05 08:32 19.56166 109.91841 21315 ft 423 kts 207°
2026-05-05 08:32 19.53479 109.90548 21592 ft 425 kts 207°
2026-05-05 08:32 19.50780 109.89252 21875 ft 427 kts 207°
2026-05-05 08:32 19.48072 109.87954 22145 ft 429 kts 207°
2026-05-05 08:33 19.45347 109.86649 22420 ft 430 kts 207°
2026-05-05 08:33 19.42615 109.85339 22689 ft 432 kts 207°
2026-05-05 08:33 19.39870 109.84023 22939 ft 434 kts 207°
2026-05-05 08:33 19.37111 109.82703 23210 ft 436 kts 207°
2026-05-05 08:34 19.34337 109.81381 23464 ft 438 kts 206°
2026-05-05 08:34 19.31547 109.80051 23647 ft 441 kts 207°
2026-05-05 08:34 19.28784 109.78730 23836 ft 443 kts 206°
2026-05-05 08:34 19.25971 109.77385 24045 ft 444 kts 206°
2026-05-05 08:35 19.23153 109.76032 24249 ft 445 kts 207°
2026-05-05 08:35 19.20335 109.74654 24477 ft 447 kts 207°
2026-05-05 08:35 19.17517 109.73257 24694 ft 448 kts 207°
2026-05-05 08:35 19.14689 109.71851 24903 ft 450 kts 207°
2026-05-05 08:36 19.11845 109.70455 25134 ft 451 kts 207°
2026-05-05 08:36 19.08983 109.69072 25344 ft 453 kts 207°
2026-05-05 08:36 19.06112 109.67700 25545 ft 454 kts 207°
2026-05-05 08:36 19.03222 109.66328 25745 ft 456 kts 207°
2026-05-05 08:37 19.00324 109.64951 25938 ft 457 kts 207°
2026-05-05 08:37 18.97413 109.63563 26152 ft 459 kts 207°
2026-05-05 08:37 18.94503 109.62170 26347 ft 460 kts 207°
2026-05-05 08:37 18.91586 109.60768 26546 ft 461 kts 207°
2026-05-05 08:38 18.88665 109.59364 26709 ft 463 kts 207°
2026-05-05 08:38 18.85722 109.57952 26897 ft 464 kts 207°
2026-05-05 08:38 18.82777 109.56542 27078 ft 465 kts 207°
2026-05-05 08:38 18.79824 109.55129 27233 ft 466 kts 207°
2026-05-05 08:39 18.76866 109.53715 27390 ft 467 kts 207°
2026-05-05 08:39 18.73898 109.52295 27567 ft 469 kts 207°
2026-05-05 08:39 18.70958 109.50890 27713 ft 471 kts 207°
2026-05-05 08:39 18.67973 109.49466 27887 ft 472 kts 207°
2026-05-05 08:40 18.64976 109.48034 28068 ft 473 kts 207°
2026-05-05 08:40 18.61970 109.46598 28256 ft 475 kts 207°
2026-05-05 08:40 18.58964 109.45161 28445 ft 476 kts 207°
2026-05-05 08:40 18.55940 109.43721 28618 ft 477 kts 207°
2026-05-05 08:41 18.52912 109.42275 28824 ft 477 kts 208°
2026-05-05 08:41 18.50053 109.40542 29060 ft 472 kts 218°
2026-05-05 08:41 18.47513 109.38367 29280 ft 468 kts 227°
2026-05-05 08:41 18.45347 109.35830 29534 ft 464 kts 234°
2026-05-05 08:42 18.43317 109.33184 29763 ft 464 kts 233°
2026-05-05 08:42 18.41280 109.30545 29957 ft 464 kts 233°
2026-05-05 08:42 18.39232 109.27905 30132 ft 464 kts 233°
2026-05-05 08:42 18.37186 109.25281 30310 ft 464 kts 233°
2026-05-05 08:43 18.35097 109.22697 30497 ft 465 kts 228°
2026-05-05 08:43 18.32630 109.20477 30688 ft 469 kts 217°
2026-05-05 08:43 18.29782 109.18782 30864 ft 473 kts 206°
2026-05-05 08:43 18.26692 109.17691 31012 ft 478 kts 195°
2026-05-05 08:44 18.23383 109.17233 31180 ft 483 kts 184°
2026-05-05 08:44 18.20018 109.17186 31339 ft 484 kts 184°
2026-05-05 08:44 18.16651 109.17146 31512 ft 484 kts 184°
2026-05-05 08:44 18.13283 109.17104 31690 ft 484 kts 184°
2026-05-05 08:45 18.09911 109.17059 31866 ft 484 kts 184°
2026-05-05 08:45 18.06541 109.17017 32056 ft 484 kts 184°
2026-05-05 08:45 18.03173 109.16976 32243 ft 484 kts 184°
2026-05-05 08:45 17.99810 109.16933 32429 ft 484 kts 184°
2026-05-05 08:46 17.96441 109.16889 32611 ft 484 kts 184°
2026-05-05 08:46 17.93078 109.16844 32796 ft 484 kts 184°
2026-05-05 08:46 17.89710 109.16798 32978 ft 484 kts 184°
2026-05-05 08:46 17.86340 109.16754 33166 ft 484 kts 184°
2026-05-05 08:47 17.82980 109.16710 33343 ft 484 kts 184°
2026-05-05 08:47 17.79609 109.16667 33536 ft 484 kts 184°
2026-05-05 08:47 17.76246 109.16623 33716 ft 484 kts 184°
2026-05-05 08:47 17.72878 109.16579 33904 ft 484 kts 184°
2026-05-05 08:48 17.69508 109.16534 33986 ft 483 kts 184°
2026-05-05 08:48 17.62858 109.16453 34004 ft 480 kts 184°
2026-05-05 08:49 17.56189 109.16385 34001 ft 479 kts 184°
2026-05-05 08:49 17.49522 109.16764 34002 ft 484 kts 171°
2026-05-05 08:50 17.43070 109.18805 33999 ft 484 kts 163°
2026-05-05 08:50 17.36689 109.21028 34002 ft 483 kts 164°
2026-05-05 08:51 17.30298 109.23240 34041 ft 484 kts 164°
2026-05-05 08:51 17.27093 109.24351 34154 ft 486 kts 164°
2026-05-05 08:51 17.23885 109.25464 34292 ft 486 kts 164°
2026-05-05 08:51 17.20669 109.26576 34451 ft 486 kts 164°
2026-05-05 08:52 17.17456 109.27686 34622 ft 486 kts 164°
2026-05-05 08:52 17.14247 109.28793 34792 ft 486 kts 164°
2026-05-05 08:52 17.11043 109.29902 34957 ft 485 kts 164°
2026-05-05 08:52 17.07843 109.31014 35141 ft 484 kts 164°
2026-05-05 08:53 17.04650 109.32127 35312 ft 484 kts 164°
2026-05-05 08:53 17.01460 109.33237 35492 ft 483 kts 164°
2026-05-05 08:53 16.98269 109.34342 35653 ft 482 kts 164°
2026-05-05 08:53 16.95078 109.35443 35814 ft 482 kts 164°
2026-05-05 08:54 16.91941 109.36526 35976 ft 482 kts 164°
2026-05-05 08:54 16.88759 109.37625 36130 ft 481 kts 164°
2026-05-05 08:54 16.85545 109.38590 36273 ft 478 kts 172°
2026-05-05 08:54 16.82269 109.39048 36414 ft 474 kts 181°
2026-05-05 08:55 16.78991 109.38969 36531 ft 469 kts 190°
2026-05-05 08:55 16.75757 109.38557 36664 ft 468 kts 191°
2026-05-05 08:55 16.72526 109.38147 36795 ft 468 kts 190°
2026-05-05 08:55 16.69292 109.37747 36927 ft 468 kts 190°
2026-05-05 08:56 16.66055 109.37351 37058 ft 467 kts 190°
2026-05-05 08:56 16.62828 109.36959 37185 ft 467 kts 190°
2026-05-05 08:56 16.59602 109.36568 37312 ft 466 kts 190°
2026-05-05 08:56 16.56374 109.36177 37440 ft 466 kts 190°
2026-05-05 08:57 16.53157 109.35785 37566 ft 465 kts 190°
2026-05-05 08:57 16.49987 109.35395 37694 ft 464 kts 190°
2026-05-05 08:57 16.46781 109.34997 37818 ft 463 kts 190°
2026-05-05 08:57 16.43581 109.34598 37947 ft 462 kts 190°
2026-05-05 08:58 16.40390 109.34200 38081 ft 461 kts 190°
2026-05-05 08:58 16.37206 109.33804 38215 ft 460 kts 190°
2026-05-05 08:58 16.34031 109.33410 38342 ft 459 kts 190°
2026-05-05 08:58 16.30871 109.33020 38479 ft 457 kts 190°
2026-05-05 08:59 16.27710 109.32632 38603 ft 456 kts 190°
2026-05-05 08:59 16.24565 109.32247 38715 ft 455 kts 190°
2026-05-05 08:59 16.21430 109.31864 38866 ft 452 kts 190°
2026-05-05 09:00 16.15165 109.31094 38898 ft 454 kts 190°
2026-05-05 09:00 16.08864 109.30318 38895 ft 457 kts 190°
2026-05-05 09:01 16.02531 109.29540 38894 ft 460 kts 190°
2026-05-05 09:01 15.96160 109.28759 38892 ft 462 kts 189°
2026-05-05 09:02 15.89757 109.27972 38898 ft 464 kts 190°
2026-05-05 09:02 15.83334 109.27182 38892 ft 466 kts 190°
2026-05-05 09:03 15.76929 109.26396 38894 ft 467 kts 189°
2026-05-05 09:03 15.70446 109.25611 38893 ft 469 kts 189°
2026-05-05 09:04 15.63950 109.24813 38888 ft 471 kts 189°
2026-05-05 09:04 15.57434 109.24010 38888 ft 472 kts 189°
2026-05-05 09:05 15.50903 109.23212 38889 ft 473 kts 189°
2026-05-05 09:05 15.44361 109.22411 38879 ft 475 kts 190°
2026-05-05 09:06 15.37782 109.21599 38869 ft 477 kts 190°
2026-05-05 09:06 15.31179 109.20789 38865 ft 479 kts 190°
2026-05-05 09:07 15.24556 109.19976 38864 ft 480 kts 190°
2026-05-05 09:07 15.17957 109.19169 38879 ft 481 kts 190°
2026-05-05 09:08 15.11310 109.18348 38885 ft 481 kts 189°
2026-05-05 09:08 15.04670 109.17538 38903 ft 480 kts 189°
2026-05-05 09:09 14.98037 109.16731 38912 ft 480 kts 189°
2026-05-05 09:09 14.91399 109.15920 38918 ft 480 kts 189°
2026-05-05 09:10 14.84762 109.15103 38918 ft 480 kts 189°
2026-05-05 09:10 14.78125 109.14290 38919 ft 480 kts 189°
2026-05-05 09:11 14.71539 109.13486 38910 ft 479 kts 189°
2026-05-05 09:11 14.64919 109.12678 38927 ft 479 kts 189°
2026-05-05 09:12 14.58301 109.11871 38935 ft 478 kts 189°
2026-05-05 09:12 14.51754 109.11077 38904 ft 472 kts 189°
2026-05-05 09:13 14.45227 109.10282 38900 ft 471 kts 189°
2026-05-05 09:13 14.38714 109.09484 38902 ft 471 kts 189°
2026-05-05 09:14 14.32201 109.08693 38898 ft 471 kts 189°
2026-05-05 09:14 14.25688 109.07892 38900 ft 471 kts 189°
2026-05-05 09:15 14.20272 109.07231 38906 ft 471 kts 189°
2026-05-05 09:15 14.12697 109.06322 38909 ft 472 kts 189°
2026-05-05 09:16 14.06168 109.05538 38906 ft 472 kts 189°
2026-05-05 09:16 14.00740 109.04882 38905 ft 472 kts 190°
2026-05-05 09:16 13.96484 109.03885 38907 ft 467 kts 202°
2026-05-05 09:17 13.94498 109.03047 38903 ft 464 kts 209°
2026-05-05 09:17 13.89091 108.99507 38903 ft 461 kts 217°
2026-05-05 09:18 13.83826 108.95734 38913 ft 461 kts 217°
2026-05-05 09:18 13.78548 108.91972 38908 ft 462 kts 217°
2026-05-05 09:19 13.73253 108.88188 38904 ft 463 kts 217°
2026-05-05 09:19 13.67960 108.84403 38908 ft 463 kts 217°
2026-05-05 09:20 13.62662 108.80620 38914 ft 464 kts 217°
2026-05-05 09:20 13.57355 108.76834 38914 ft 464 kts 217°
2026-05-05 09:21 13.52054 108.73041 38931 ft 464 kts 217°
2026-05-05 09:21 13.46749 108.69254 38925 ft 464 kts 217°
2026-05-05 09:22 13.41448 108.65477 38924 ft 463 kts 217°
2026-05-05 09:22 13.36188 108.61735 38929 ft 463 kts 217°
2026-05-05 09:23 13.30896 108.57969 38925 ft 463 kts 217°
2026-05-05 09:23 13.25614 108.54199 38917 ft 462 kts 217°
2026-05-05 09:24 13.20330 108.50433 38922 ft 462 kts 217°
2026-05-05 09:24 13.15047 108.46671 38921 ft 463 kts 217°
2026-05-05 09:25 13.09750 108.42905 38927 ft 463 kts 217°
2026-05-05 09:25 13.04450 108.39138 38921 ft 463 kts 216°
2026-05-05 09:26 12.99151 108.35371 38920 ft 464 kts 216°
2026-05-05 09:26 12.93851 108.31601 38926 ft 464 kts 216°
2026-05-05 09:27 12.88540 108.27826 38922 ft 464 kts 216°
2026-05-05 09:27 12.83265 108.24084 38925 ft 464 kts 217°
2026-05-05 09:28 12.77961 108.20322 38928 ft 463 kts 216°
2026-05-05 09:28 12.72668 108.16569 38928 ft 462 kts 216°
2026-05-05 09:29 12.67075 108.13336 38920 ft 464 kts 201°
2026-05-05 09:29 12.63962 108.12468 38914 ft 465 kts 190°
2026-05-05 09:29 12.60725 108.12174 38916 ft 467 kts 182°
2026-05-05 09:30 12.54223 108.12063 38915 ft 468 kts 182°
2026-05-05 09:30 12.47715 108.11937 38907 ft 469 kts 182°
2026-05-05 09:31 12.41185 108.11800 38907 ft 470 kts 182°
2026-05-05 09:31 12.34631 108.11661 38908 ft 471 kts 182°
2026-05-05 09:32 12.28063 108.11530 38924 ft 472 kts 182°
2026-05-05 09:32 12.21488 108.11400 38925 ft 473 kts 182°
2026-05-05 09:33 12.14894 108.11270 38932 ft 474 kts 182°
2026-05-05 09:33 12.08340 108.11145 38934 ft 475 kts 182°
2026-05-05 09:34 12.01729 108.11012 38939 ft 475 kts 182°
2026-05-05 09:34 11.95151 108.10509 38934 ft 474 kts 194°
2026-05-05 09:35 11.89113 108.07957 38940 ft 470 kts 214°
2026-05-05 09:35 11.81752 108.01392 38928 ft 469 kts 223°
2026-05-05 09:36 11.76942 107.96857 38924 ft 471 kts 224°
2026-05-05 09:36 11.72137 107.92332 38919 ft 470 kts 224°
2026-05-05 09:37 11.67364 107.87841 38920 ft 470 kts 224°
2026-05-05 09:37 11.62552 107.83305 38921 ft 471 kts 224°
2026-05-05 09:38 11.57739 107.78767 38907 ft 471 kts 224°
2026-05-05 09:38 11.52930 107.74236 38897 ft 471 kts 224°
2026-05-05 09:39 11.48106 107.69699 38881 ft 472 kts 224°
2026-05-05 09:39 11.43280 107.65160 38883 ft 472 kts 224°
2026-05-05 09:40 11.38460 107.60616 38884 ft 472 kts 224°
2026-05-05 09:40 11.33628 107.56072 38861 ft 473 kts 224°
2026-05-05 09:41 11.28790 107.51535 38866 ft 473 kts 223°
2026-05-05 09:41 11.23952 107.46994 38866 ft 473 kts 224°
2026-05-05 09:42 11.19113 107.42453 38851 ft 473 kts 224°
2026-05-05 09:42 11.14271 107.37915 38853 ft 473 kts 224°
2026-05-05 09:43 11.09432 107.33375 38853 ft 473 kts 224°
2026-05-05 09:43 11.04592 107.28834 38842 ft 473 kts 224°
2026-05-05 09:44 10.99756 107.24298 38842 ft 473 kts 224°
2026-05-05 09:44 10.94738 107.20052 38839 ft 474 kts 212°
2026-05-05 09:45 10.88666 107.17492 38834 ft 475 kts 194°
2026-05-05 09:45 10.82243 107.15889 38835 ft 475 kts 195°
2026-05-05 09:46 10.75829 107.14266 38833 ft 474 kts 194°
2026-05-05 09:46 10.69435 107.12642 38833 ft 473 kts 194°
2026-05-05 09:47 10.63052 107.11021 38836 ft 473 kts 194°
2026-05-05 09:47 10.56668 107.09410 38834 ft 472 kts 194°
2026-05-05 09:48 10.50289 107.07806 38837 ft 472 kts 194°
2026-05-05 09:48 10.43922 107.06188 38836 ft 471 kts 194°
2026-05-05 09:49 10.37568 107.04554 38838 ft 471 kts 194°
2026-05-05 09:49 10.31195 107.02926 38838 ft 473 kts 194°
2026-05-05 09:50 10.24805 107.01298 38850 ft 474 kts 194°
2026-05-05 09:50 10.18407 106.99673 38853 ft 474 kts 194°
2026-05-05 09:51 10.11998 106.98040 38869 ft 475 kts 194°
2026-05-05 09:51 10.05628 106.96410 38866 ft 476 kts 193°
2026-05-05 09:52 9.99193 106.94773 38864 ft 476 kts 194°
2026-05-05 09:52 9.92760 106.93142 38875 ft 477 kts 194°
2026-05-05 09:53 9.86318 106.91506 38876 ft 477 kts 193°
2026-05-05 09:53 9.79873 106.89859 38877 ft 478 kts 193°
2026-05-05 09:54 9.73418 106.88213 38870 ft 479 kts 193°
2026-05-05 09:54 9.66940 106.86570 38868 ft 480 kts 194°
2026-05-05 09:55 9.60490 106.84929 38861 ft 482 kts 194°
2026-05-05 09:55 9.53987 106.83261 38868 ft 482 kts 194°
2026-05-05 09:56 9.47481 106.81593 38872 ft 483 kts 194°
2026-05-05 09:56 9.40951 106.79923 38874 ft 484 kts 194°
2026-05-05 09:57 9.34428 106.78249 38875 ft 484 kts 194°
2026-05-05 09:57 9.27884 106.76565 38872 ft 485 kts 194°
2026-05-05 09:58 9.21336 106.74896 38873 ft 485 kts 194°
2026-05-05 09:58 9.14781 106.73226 38875 ft 486 kts 194°
2026-05-05 09:59 9.08225 106.71556 38873 ft 485 kts 194°
2026-05-05 09:59 9.01679 106.69889 38875 ft 485 kts 193°
2026-05-05 10:00 8.95183 106.68230 38876 ft 484 kts 194°
2026-05-05 10:00 8.88649 106.66560 38870 ft 484 kts 194°
2026-05-05 10:01 8.82122 106.64897 38877 ft 483 kts 194°
2026-05-05 10:01 8.75605 106.63221 38872 ft 483 kts 197°
2026-05-05 10:02 8.69545 106.60335 38868 ft 482 kts 212°
2026-05-05 10:02 8.63839 106.56770 38865 ft 482 kts 212°
2026-05-05 10:03 8.58165 106.53251 38864 ft 482 kts 212°
2026-05-05 10:03 8.52437 106.49704 38863 ft 482 kts 212°
2026-05-05 10:04 8.46723 106.46154 38863 ft 482 kts 212°
2026-05-05 10:04 8.41009 106.42607 38864 ft 482 kts 212°
2026-05-05 10:05 8.35292 106.39068 38867 ft 480 kts 212°
2026-05-05 10:05 8.29645 106.35558 38718 ft 475 kts 212°
2026-05-05 10:06 8.24964 106.32653 38567 ft 474 kts 212°
2026-05-05 10:06 8.21204 106.30326 38411 ft 474 kts 212°
2026-05-05 10:06 8.18392 106.28587 38361 ft 474 kts 212°
2026-05-05 10:07 8.12795 106.25127 38257 ft 474 kts 212°
2026-05-05 10:07 8.07159 106.21645 38146 ft 475 kts 212°
2026-05-05 10:08 8.02473 106.18745 38056 ft 475 kts 212°
2026-05-05 10:08 7.96846 106.15256 37950 ft 473 kts 210°
2026-05-05 10:09 7.91246 106.11793 37849 ft 472 kts 210°
2026-05-05 10:09 7.85642 106.08321 37746 ft 472 kts 211°
2026-05-05 10:10 7.80037 106.04855 37634 ft 473 kts 211°
2026-05-05 10:10 7.74428 106.01385 37531 ft 473 kts 211°
2026-05-05 10:11 7.68803 105.97910 37437 ft 474 kts 210°
2026-05-05 10:11 7.63176 105.94443 37326 ft 474 kts 210°
2026-05-05 10:12 7.57587 105.90997 37221 ft 474 kts 210°
2026-05-05 10:12 7.51948 105.87519 37048 ft 475 kts 210°
2026-05-05 10:13 7.49129 105.85781 36923 ft 475 kts 210°
2026-05-05 10:13 7.46312 105.84044 36799 ft 475 kts 210°
2026-05-05 10:13 7.43487 105.82305 36695 ft 476 kts 210°
2026-05-05 10:13 7.40666 105.80568 36598 ft 476 kts 211°
2026-05-05 10:14 7.35015 105.77084 36402 ft 476 kts 210°
2026-05-05 10:14 7.29360 105.73589 36194 ft 476 kts 211°
2026-05-05 10:15 7.23710 105.70101 36014 ft 476 kts 210°
2026-05-05 10:15 7.18056 105.66621 35821 ft 476 kts 210°
2026-05-05 10:16 7.12399 105.63136 35632 ft 476 kts 210°
2026-05-05 10:16 7.06744 105.59653 35434 ft 476 kts 210°
2026-05-05 10:17 7.01131 105.56200 35251 ft 476 kts 210°
2026-05-05 10:17 6.95365 105.52928 35068 ft 476 kts 206°
2026-05-05 10:18 6.89423 105.49994 34885 ft 476 kts 204°
2026-05-05 10:18 6.83446 105.47094 34699 ft 476 kts 205°
2026-05-05 10:19 6.77519 105.44108 34518 ft 476 kts 206°
2026-05-05 10:19 6.71621 105.41070 34336 ft 476 kts 207°
2026-05-05 10:20 6.65716 105.38047 34156 ft 476 kts 206°
2026-05-05 10:20 6.59797 105.35043 33927 ft 476 kts 206°
2026-05-05 10:21 6.56847 105.33546 33800 ft 475 kts 206°
2026-05-05 10:21 6.53894 105.32049 33845 ft 475 kts 206°
2026-05-05 10:21 6.47988 105.29048 33841 ft 475 kts 206°
2026-05-05 10:22 6.42087 105.26046 33841 ft 475 kts 205°
2026-05-05 10:22 6.36184 105.23045 33841 ft 475 kts 206°
2026-05-05 10:23 6.30279 105.20051 33841 ft 475 kts 206°
2026-05-05 10:23 6.24376 105.17054 33840 ft 475 kts 206°
2026-05-05 10:24 6.18470 105.14061 33844 ft 475 kts 206°
2026-05-05 10:24 6.12613 105.11088 33840 ft 475 kts 206°
2026-05-05 10:25 6.06711 105.08105 33839 ft 475 kts 206°
2026-05-05 10:25 6.00817 105.05115 33838 ft 475 kts 206°
2026-05-05 10:26 5.94922 105.02123 33836 ft 474 kts 206°
2026-05-05 10:26 5.89026 104.99133 33835 ft 474 kts 206°
2026-05-05 10:27 5.83133 104.96151 33840 ft 474 kts 206°
2026-05-05 10:27 5.77253 104.93169 33842 ft 473 kts 206°
2026-05-05 10:28 5.71375 104.90190 33839 ft 473 kts 206°
2026-05-05 10:28 5.65497 104.87214 33835 ft 473 kts 206°
2026-05-05 10:29 5.59613 104.84236 33834 ft 473 kts 206°
2026-05-05 10:29 5.53734 104.81266 33830 ft 473 kts 206°
2026-05-05 10:30 5.47889 104.78312 33830 ft 473 kts 206°
2026-05-05 10:30 5.42014 104.75335 33835 ft 473 kts 206°
2026-05-05 10:31 5.36134 104.72361 33835 ft 473 kts 206°
2026-05-05 10:31 5.30259 104.69389 33834 ft 473 kts 206°
2026-05-05 10:32 5.24382 104.66415 33833 ft 473 kts 206°
2026-05-05 10:32 5.18506 104.63445 33833 ft 473 kts 206°
2026-05-05 10:33 5.12627 104.60479 33832 ft 473 kts 206°
2026-05-05 10:33 5.06746 104.57515 33833 ft 473 kts 206°
2026-05-05 10:34 5.00876 104.54539 33833 ft 473 kts 206°
2026-05-05 10:34 4.95043 104.51586 33834 ft 473 kts 206°
2026-05-05 10:35 4.89053 104.48922 33826 ft 472 kts 195°
2026-05-05 10:35 4.82583 104.48123 33824 ft 470 kts 176°
2026-05-05 10:36 4.76099 104.48880 33825 ft 470 kts 172°
2026-05-05 10:36 4.69652 104.49691 33807 ft 470 kts 172°
2026-05-05 10:37 4.63206 104.50496 33799 ft 465 kts 172°
2026-05-05 10:37 4.56785 104.51306 33798 ft 465 kts 172°
2026-05-05 10:38 4.50370 104.52119 33798 ft 465 kts 172°
2026-05-05 10:38 4.43998 104.52925 33730 ft 465 kts 172°
2026-05-05 10:39 4.37582 104.53731 33577 ft 465 kts 172°
2026-05-05 10:39 4.31155 104.54543 33376 ft 465 kts 172°
2026-05-05 10:40 4.27940 104.54949 33251 ft 466 kts 172°
2026-05-05 10:40 4.24722 104.55357 33123 ft 466 kts 172°
2026-05-05 10:40 4.21506 104.55765 33006 ft 466 kts 172°
2026-05-05 10:40 4.18330 104.56145 32879 ft 467 kts 173°
2026-05-05 10:41 4.15101 104.56479 32746 ft 467 kts 174°
2026-05-05 10:41 4.11860 104.56781 32477 ft 468 kts 174°
2026-05-05 10:41 4.08619 104.57069 32211 ft 468 kts 174°
2026-05-05 10:41 4.05374 104.57360 31949 ft 469 kts 174°
2026-05-05 10:42 3.98874 104.57976 31414 ft 470 kts 174°
2026-05-05 10:42 3.95620 104.58295 31163 ft 470 kts 174°
2026-05-05 10:42 3.92401 104.58614 30913 ft 471 kts 174°
2026-05-05 10:43 3.89136 104.58937 30662 ft 472 kts 174°
2026-05-05 10:43 3.85869 104.59258 30407 ft 472 kts 174°
2026-05-05 10:43 3.82595 104.59578 30158 ft 473 kts 174°
2026-05-05 10:43 3.79313 104.59898 29911 ft 474 kts 174°
2026-05-05 10:44 3.76030 104.60218 29626 ft 475 kts 174°
2026-05-05 10:44 3.72741 104.60538 29333 ft 475 kts 174°
2026-05-05 10:44 3.69446 104.60862 29055 ft 476 kts 173°
2026-05-05 10:44 3.66145 104.61189 28732 ft 477 kts 173°
2026-05-05 10:45 3.62881 104.61513 28430 ft 478 kts 173°
2026-05-05 10:45 3.59571 104.61840 28127 ft 479 kts 173°
2026-05-05 10:45 3.56251 104.62168 27828 ft 480 kts 173°
2026-05-05 10:45 3.52925 104.62496 27532 ft 481 kts 173°
2026-05-05 10:46 3.49592 104.62822 27248 ft 482 kts 173°
2026-05-05 10:46 3.46252 104.63147 26948 ft 483 kts 173°
2026-05-05 10:46 3.42906 104.63473 26661 ft 484 kts 173°
2026-05-05 10:46 3.39551 104.63801 26378 ft 485 kts 173°
2026-05-05 10:47 3.36238 104.64124 26101 ft 486 kts 173°
2026-05-05 10:47 3.32875 104.64452 25864 ft 486 kts 173°
2026-05-05 10:47 3.29504 104.64782 25634 ft 487 kts 173°
2026-05-05 10:47 3.26124 104.65113 25406 ft 488 kts 173°
2026-05-05 10:48 3.22747 104.65444 25179 ft 489 kts 173°
2026-05-05 10:48 3.19358 104.65779 24954 ft 489 kts 173°
2026-05-05 10:48 3.15966 104.66114 24731 ft 490 kts 173°
2026-05-05 10:48 3.12568 104.66443 24507 ft 491 kts 174°
2026-05-05 10:49 3.09146 104.66408 24286 ft 493 kts 185°
2026-05-05 10:49 3.05820 104.65744 24071 ft 496 kts 196°
2026-05-05 10:49 3.02618 104.64462 23852 ft 498 kts 206°
2026-05-05 10:49 2.99691 104.62597 23643 ft 500 kts 217°
2026-05-05 10:50 2.97153 104.60217 23436 ft 501 kts 226°
2026-05-05 10:50 2.94784 104.57668 23177 ft 500 kts 226°
2026-05-05 10:50 2.92421 104.55129 22921 ft 498 kts 226°
2026-05-05 10:50 2.90060 104.52601 22666 ft 496 kts 226°
2026-05-05 10:51 2.87709 104.50088 22414 ft 494 kts 226°
2026-05-05 10:51 2.85394 104.47618 22158 ft 492 kts 226°
2026-05-05 10:51 2.83059 104.45126 21919 ft 490 kts 226°
2026-05-05 10:51 2.80734 104.42643 21667 ft 488 kts 226°
2026-05-05 10:52 2.78416 104.40168 21425 ft 486 kts 226°
2026-05-05 10:52 2.76106 104.37704 21183 ft 485 kts 226°
2026-05-05 10:52 2.73808 104.35252 20943 ft 483 kts 226°
2026-05-05 10:52 2.71517 104.32805 20704 ft 481 kts 226°
2026-05-05 10:53 2.69234 104.30362 20470 ft 479 kts 226°
2026-05-05 10:53 2.66994 104.27968 20237 ft 476 kts 226°
2026-05-05 10:53 2.64769 104.25590 19996 ft 460 kts 226°
2026-05-05 10:53 2.62617 104.23290 19763 ft 445 kts 226°
2026-05-05 10:54 2.60533 104.21066 19531 ft 431 kts 226°
2026-05-05 10:54 2.58514 104.18911 19306 ft 418 kts 226°
2026-05-05 10:54 2.56554 104.16818 19080 ft 406 kts 226°
2026-05-05 10:54 2.54647 104.14782 18847 ft 396 kts 226°
2026-05-05 10:55 2.52719 104.12876 18633 ft 384 kts 217°
2026-05-05 10:55 2.50495 104.11487 18416 ft 372 kts 202°
2026-05-05 10:55 2.48125 104.10710 18173 ft 353 kts 188°
2026-05-05 10:55 2.45741 104.10495 17941 ft 341 kts 178°
2026-05-05 10:56 2.43376 104.10508 17614 ft 339 kts 178°
2026-05-05 10:56 2.41021 104.10511 17204 ft 337 kts 178°
2026-05-05 10:56 2.38678 104.10511 16581 ft 335 kts 178°
2026-05-05 10:56 2.36374 104.10510 15954 ft 329 kts 178°
2026-05-05 10:57 2.34101 104.10509 15343 ft 325 kts 178°
2026-05-05 10:57 2.31850 104.10509 14740 ft 322 kts 178°
2026-05-05 10:57 2.29668 104.10508 14153 ft 319 kts 179°
2026-05-05 10:57 2.27419 104.10507 13579 ft 327 kts 179°
2026-05-05 10:58 2.25139 104.10507 12914 ft 327 kts 179°
2026-05-05 10:58 2.22887 104.10505 12264 ft 320 kts 179°
2026-05-05 10:58 2.20692 104.10504 11634 ft 311 kts 179°
2026-05-05 10:58 2.18554 104.10502 11020 ft 305 kts 179°
2026-05-05 10:59 2.16446 104.10501 10414 ft 301 kts 179°
2026-05-05 10:59 2.14362 104.10502 9819 ft 298 kts 180°
2026-05-05 10:59 2.12320 104.10503 9142 ft 297 kts 180°
2026-05-05 10:59 2.10259 104.10502 8424 ft 296 kts 180°
2026-05-05 11:00 2.08210 104.10501 7710 ft 292 kts 180°
2026-05-05 11:00 2.06193 104.10502 7030 ft 288 kts 180°
2026-05-05 11:00 2.04201 104.10502 6458 ft 281 kts 180°
2026-05-05 11:00 2.02301 104.10501 6302 ft 266 kts 180°
2026-05-05 11:01 2.00508 104.10503 6142 ft 253 kts 180°
2026-05-05 11:01 1.98763 104.10504 6009 ft 250 kts 180°
2026-05-05 11:01 1.97025 104.10508 5825 ft 249 kts 180°
2026-05-05 11:01 1.95323 104.10516 5657 ft 248 kts 180°
2026-05-05 11:02 1.93600 104.10524 5488 ft 248 kts 180°
2026-05-05 11:02 1.91877 104.10531 5315 ft 247 kts 180°
2026-05-05 11:02 1.90161 104.10538 5147 ft 246 kts 180°
2026-05-05 11:02 1.88452 104.10545 4975 ft 246 kts 180°
2026-05-05 11:03 1.86746 104.10554 4810 ft 246 kts 180°
2026-05-05 11:03 1.85037 104.10561 4658 ft 245 kts 180°
2026-05-05 11:03 1.83333 104.10569 4495 ft 245 kts 179°
2026-05-05 11:03 1.81658 104.10577 4351 ft 243 kts 179°
2026-05-05 11:04 1.79965 104.10585 4204 ft 243 kts 179°
2026-05-05 11:04 1.78277 104.10592 4091 ft 242 kts 179°
2026-05-05 11:04 1.76597 104.10601 3969 ft 241 kts 179°
2026-05-05 11:04 1.74918 104.10609 3841 ft 241 kts 179°
2026-05-05 11:05 1.73244 104.10618 3730 ft 240 kts 179°
2026-05-05 11:05 1.71571 104.10626 3588 ft 240 kts 179°
2026-05-05 11:05 1.69901 104.10633 3445 ft 240 kts 179°
2026-05-05 11:05 1.68236 104.10641 3331 ft 239 kts 179°
2026-05-05 11:06 1.66606 104.10648 3206 ft 233 kts 179°
2026-05-05 11:06 1.65029 104.10655 3093 ft 220 kts 179°
2026-05-05 11:06 1.63545 104.10661 3004 ft 205 kts 179°
2026-05-05 11:06 1.62217 104.10631 2990 ft 178 kts 187°
2026-05-05 11:07 1.61096 104.10324 2977 ft 159 kts 204°
2026-05-05 11:07 1.60154 104.09789 2989 ft 157 kts 211°
2026-05-05 11:07 1.59213 104.09207 2918 ft 159 kts 211°
2026-05-05 11:07 1.58245 104.08611 2819 ft 173 kts 211°
2026-05-05 11:08 1.57193 104.07963 2734 ft 181 kts 211°
2026-05-05 11:08 1.56121 104.07303 2614 ft 181 kts 211°
2026-05-05 11:08 1.55061 104.06650 2481 ft 181 kts 211°
2026-05-05 11:08 1.53987 104.05988 2367 ft 181 kts 211°
2026-05-05 11:09 1.52903 104.05344 2245 ft 181 kts 205°
2026-05-05 11:09 1.51747 104.04861 2131 ft 180 kts 202°
2026-05-05 11:09 1.50596 104.04378 2055 ft 180 kts 201°
2026-05-05 11:09 1.49447 104.03893 2001 ft 179 kts 202°
2026-05-05 11:10 1.48297 104.03409 2000 ft 179 kts 202°
2026-05-05 11:10 1.47205 104.02948 2000 ft 162 kts 202°
2026-05-05 11:10 1.46197 104.02521 1813 ft 157 kts 202°
2026-05-05 11:10 1.45207 104.02102 1620 ft 153 kts 201°
2026-05-05 11:11 1.44232 104.01690 1406 ft 152 kts 201°
2026-05-05 11:11 1.43259 104.01277 1217 ft 152 kts 202°
2026-05-05 11:11 1.42307 104.00874 1020 ft 151 kts 202°
2026-05-05 11:11 1.41342 104.00465 828 ft 150 kts 202°
2026-05-05 11:12 1.40391 104.00061 650 ft 149 kts 205°
2026-05-05 11:12 1.39440 103.99667 478 ft 147 kts 203°
2026-05-05 11:12 1.38523 103.99298 282 ft 142 kts 205°
2026-05-05 11:12 1.37625 103.98900 87 ft 141 kts 206°
2026-05-05 11:13 1.36769 103.98530 25 ft 111 kts 201°
2026-05-05 11:13 1.36233 103.98304 24 ft 52 kts 204°
2026-05-05 11:13 1.36062 103.98283 24 ft 14 kts 191°
2026-05-05 11:13 1.35982 103.98288 26 ft 10 kts 170°
2026-05-05 11:14 1.35928 103.98295 24 ft 6 kts 173°
2026-05-05 11:14 1.35896 103.98299 26 ft 4 kts 173°
2026-05-05 11:14 1.35872 103.98301 24 ft 7 kts 174°
2026-05-05 11:14 1.35821 103.98306 24 ft 6 kts 175°
2026-05-05 11:15 1.35795 103.98308 24 ft 2 kts 175°
2026-05-05 11:15 1.35754 103.98311 24 ft 8 kts 176°
2026-05-05 11:15 1.35732 103.98317 24 ft 1 kts 148°
2026-05-05 11:15 1.35723 103.98328 25 ft 5 kts 129°
2026-05-05 11:16 1.35710 103.98345 24 ft 1 kts 126°
2026-05-05 11:16 1.35706 103.98350 24 ft 5 kts 129°
2026-05-05 11:16 1.35647 103.98359 25 ft 9 kts 193°
2026-05-05 11:16 1.35604 103.98343 25 ft 5 kts 202°
2026-05-05 11:17 1.35586 103.98335 24 ft 2 kts 204°
2026-05-05 11:17 1.35549 103.98319 25 ft 9 kts 202°
2026-05-05 11:17 1.35510 103.98312 24 ft 3 kts 161°
2026-05-05 11:17 1.35499 103.98336 24 ft 4 kts 102°
2026-05-05 11:18 1.35496 103.98355 24 ft 4 kts 98°
2026-05-05 11:18 1.35493 103.98376 24 ft 2 kts 97°
2026-05-05 11:18 1.35491 103.98406 24 ft 4 kts 95°
2026-05-05 11:18 1.35489 103.98420 24 ft 0 kts 95°
2026-05-05 11:20 1.35489 103.98422 24 ft 2 kts 95°
2026-05-05 11:20 1.35489 103.98425 24 ft 0 kts 95°
2026-05-05 11:23 1.37873 103.99009 134 ft 142 kts 206°
2026-05-05 11:23 1.36996 103.98622 25 ft 132 kts 205°